RH
76 72 72 77 80 76 74 60 76 95 96 89 67 64 64 58 56 59 58 49 48 48 51 53 52 53 55 55 56 55 56 57 58 57 57 56 57 58
82 78 76 79 83 83 82 80 80 84 95 76 65 64 57 51 56 56 60 57 54 50 53 53 54 54 56 58 54 56 57 58 57 56 58 58 59 58
81 79 80 80 84 82 83 81 81 81 78 71 62 55 52 52 54 56 57 55 60 56 54 52 55 58 52 53 55 57 58 58 57 57 60 61 61 59
80 74 70 59 68 68 66 63 68 69 72 68 62 62 64 59 59 59 52 50 64 55 54 55 56 53 54 54 55 57 58 58 58 60 62 61 60 59
74 66 60 58 60 64 63 62 62 54 63 65 75 76 72 68 65 64 61 67 58 58 56 58 57 55 57 57 58 58 60 61 62 63 62 60 60 60
83 73 59 53 54 58 57 60 58 63 66 70 76 79 76 74 77 74 74 79 82 65 64 62 62 61 62 62 62 62 64 63 65 62 60 60 60 60
81 74 73 69 67 60 60 69 71 77 78 80 88 83 80 82 77 83 80 86 90 91 86 85 77 79 80 72 69 65 63 65 62 60 61 62 61 60
82 78 79 80 73 72 75 69 68 78 84 84 87 83 79 77 81 82 86 90 87 89 90 76 81 78 78 79 64 66 66 63 59 61 63 62 62 62
78 78 74 76 76 71 68 66 65 66 69 81 78 75 78 77 81 85 88 92 89 82 88 87 79 78 75 60 68 68 64 61 62 64 64 63 62 63
75 75 81 86 82 83 83 81 80 80 76 65 75 78 78 80 82 82 88 86 82 82 85 95 88 84 67 69 67 68 62 60 63 66 64 64 65 65
82 84 84 84 82 79 79 82 83 83 71 72 72 69 71 76 74 80 87 87 86 79 88 84 85 76 77 79 77 64 61 64 66 66 66 67 67 65
89 89 86 83 80 78 78 82 88 85 78 76 80 82 75 70 70 80 86 90 92 90 86 90 91 95 93 81 82 73 72 72 68 70 68 70 66 71
96 97 80 75 78 76 73 75 74 80 74 81 83 79 74 76 77 78 78 87 96 95 77 88 99 96 98 90 85 79 79 74 73 74 74 72 70 70
96 83 78 85 75 76 76 68 74 76 79 83 84 86 88 90 90 89 86 89 90 90 85 90 95 99 96 91 85 83 79 77 79 78 76 72 73 74
89 79 80 78 76 73 69 69 78 81 86 88 89 92 97 97 91 92 89 86 93 88 72 87 98 98 99 96 92 86 87 87 79 84 76 78 79 80
78 78 78 80 77 75 78 75 74 79 84 89 92 96 98 98 98 98 99 98 99 95 76 86 92 95 96 93 96 93 88 96 84 82 82 81 76 72
77 84 92 82 80 74 76 80 84 83 87 90 97 98 97 98 98 98 99 100 100 99 92 86 88 93 93 97 98 93 92 94 86 84 84 86 81 81
86 94 89 81 74 72 76 82 84 82 91 94 98 98 98 99 99 98 98 100 100 98 97 92 95 95 95 88 69 89 84 86 84 85 89 90 85 81
93 88 88 78 76 79 84 88 92 92 89 96 97 99 100 99 99 99 99 100 99 98 96 97 100 100 96 94 76 58 86 86 89 90 87 92 92 80
86 84 79 78 80 84 86 89 93 95 96 96 97 98 99 100 100 100 100 100 99 98 99 96 99 100 98 96 95 85 73 88 89 91 91 87 82 72
85 81 78 80 84 87 88 90 94 95 96 97 98 98 99 96 93 98 99 88 89 100 99 95 91 78 93 98 96 86 79 67 73 85 88 93 91 87
83 81 82 84 87 90 94 96 97 96 97 97 98 98 96 96 97 98 99 100 98 99 96 94 92 96 100 100 95 92 86 79 71 71 70 74 92 96
86 84 87 88 91 94 96 97 97 98 98 98 98 98 98 100 98 99 99 99 99 97 98 94 92 97 100 98 92 93 90 87 86 85 80 69 66 70
Wind_Speed
5 5 2 2 3 4 4 7 7 5 4 4 3 3 3 3 4 3 3 7 7 6 7 9 9 8 10 9 12 13 13 13 14 16 17 17 19 20
4 5 4 3 3 3 4 4 3 5 5 1 1 3 4 3 4 4 3 7 7 6 9 9 9 9 9 12 13 14 14 14 15 17 16 18 19 20
5 6 5 5 4 3 3 3 4 3 6 2 2 2 2 3 3 3 3 3 3 9 8 9 9 11 12 12 13 13 14 16 17 16 18 20 20 20
6 7 6 4 6 5 4 5 4 3 5 5 2 3 2 2 2 3 2 1 4 7 9 6 10 11 13 12 13 14 15 15 15 17 19 20 20 20
8 7 8 6 6 5 4 5 3 4 4 6 4 2 3 1 2 3 1 1 2 6 5 5 11 12 13 14 14 13 15 16 18 19 19 18 17 20
10 10 8 7 8 7 6 5 5 6 6 6 3 3 3 1 2 1 2 0 2 3 3 4 11 12 14 14 13 15 16 17 17 16 15 18 21 21
13 12 9 11 12 8 6 4 6 5 4 4 3 3 3 2 2 1 2 2 2 0 2 2 4 3 4 8 11 16 17 15 14 15 20 20 21 22
14 10 11 14 14 14 13 11 8 6 5 3 2 3 4 3 3 2 1 2 2 1 2 6 1 4 4 4 17 18 14 13 14 20 21 21 22 23
15 15 12 8 10 9 12 13 10 9 6 5 5 4 4 4 4 2 2 1 2 2 1 4 0 4 5 9 18 15 12 13 20 20 21 21 23 24
13 14 13 12 10 10 10 7 6 5 5 5 5 5 5 5 3 2 2 1 4 1 2 3 1 3 8 8 14 11 10 20 20 21 22 24 23 22
11 11 12 12 17 18 10 10 7 7 11 14 12 11 11 10 5 3 2 2 2 1 2 1 2 6 3 4 4 7 17 21 21 23 24 22 20 22
10 10 17 12 18 18 11 11 10 6 7 6 5 8 8 6 9 5 2 1 1 3 1 3 3 4 4 2 2 5 7 16 22 23 22 19 22 9
10 8 8 19 17 16 13 7 7 8 9 6 5 3 3 4 3 3 1 0 1 3 4 4 1 3 3 6 2 4 5 9 9 11 17 19 22 20
11 8 10 20 18 16 11 13 17 11 5 5 3 3 3 3 3 3 2 1 3 5 6 3 4 2 4 6 8 3 6 7 7 7 7 15 21 21
10 14 22 20 18 13 14 14 14 5 5 4 4 2 2 1 2 1 3 3 4 4 3 3 3 3 3 6 9 9 12 3 8 7 8 10 10 9
20 15 14 13 13 11 10 8 5 5 4 4 3 2 2 1 1 0 1 2 2 3 4 4 4 2 4 7 8 10 7 6 8 10 9 10 9 9
14 10 8 7 7 6 5 5 5 5 4 3 3 2 1 1 1 0 1 2 1 3 5 5 4 5 7 9 7 6 9 8 9 10 11 12 10 9
11 9 8 8 8 7 6 6 5 7 3 3 2 2 1 0 1 1 2 0 2 3 3 5 5 5 3 5 10 6 8 8 10 10 10 11 13 9
8 8 8 7 7 6 6 5 4 3 3 3 3 2 1 1 3 2 2 1 2 2 4 3 3 1 7 10 6 10 11 11 10 10 9 9 13 13
6 7 7 7 7 7 6 5 5 4 4 3 3 2 2 2 1 2 1 1 3 3 3 3 2 2 3 9 12 13 15 10 9 11 11 10 12 25
6 6 7 7 7 7 6 5 5 5 3 3 2 2 2 1 2 2 3 9 10 1 5 6 6 18 6 4 6 8 10 16 16 12 11 12 11 11
6 7 6 7 7 6 6 5 4 4 3 3 2 2 2 1 2 3 2 3 4 3 5 6 7 4 2 2 10 13 11 10 16 20 21 17 8 8
7 7 6 6 6 6 5 4 4 3 3 2 1 2 1 1 2 3 4 4 4 5 4 7 6 3 4 4 13 10 14 14 9 12 13 17 16 21
Wind_Direction
181 176 154 184 167 173 169 174 143 155 181 212 150 170 136 138 121 105 64 54 44 55 36 10 0 10 1 356 350 340 340 336 341 338 332 329 334 331
153 146 143 136 163 176 179 146 124 130 129 135 194 156 165 142 114 97 76 52 24 38 13 1 1 357 357 350 339 339 336 339 336 331 328 328 325 325
114 124 106 105 98 91 93 97 108 109 114 121 100 91 82 138 128 87 72 42 357 14 353 351 5 3 348 344 338 332 336 332 329 328 325 323 321 321
120 114 103 100 89 88 91 89 101 98 118 128 127 120 97 70 80 92 75 82 17 331 341 13 7 358 347 338 333 333 331 326 321 322 321 316 314 315
118 121 121 124 118 116 106 107 97 94 100 132 119 103 94 56 81 70 154 22 324 327 338 26 358 345 338 334 329 326 326 322 318 318 312 313 318 321
138 133 143 141 136 131 116 113 108 94 97 102 89 97 101 81 104 116 360 295 285 326 359 328 335 337 333 324 327 322 320 321 317 313 317 325 320 317
141 143 142 142 138 123 125 127 108 94 99 108 115 116 138 146 107 191 242 278 297 292 303 301 302 305 296 310 306 314 322 317 319 331 328 321 320 320
141 137 137 132 136 144 143 145 136 130 129 140 152 129 130 146 160 186 245 352 337 120 3 309 226 305 292 292 314 325 323 327 331 333 326 323 319 319
142 140 130 131 134 122 120 110 111 113 140 146 136 118 134 159 156 177 204 191 246 265 83 289 334 301 306 308 317 325 334 341 331 327 323 320 319 316
143 137 135 135 131 134 119 121 102 104 105 91 104 122 127 148 152 165 150 261 262 272 106 273 281 284 305 294 316 324 335 332 327 326 324 321 315 313
126 125 132 129 149 144 132 120 115 105 111 111 113 116 107 102 109 123 59 0 327 336 91 307 291 302 273 291 319 325 324 320 324 319 321 319 319 319
118 127 134 142 155 155 137 142 133 134 118 97 89 81 75 72 64 64 90 50 300 318 223 326 306 347 311 249 266 295 293 305 311 315 321 319 321 314
131 135 150 157 151 161 151 142 144 137 130 116 111 108 85 73 67 49 18 207 198 247 279 345 300 293 232 305 308 289 281 286 293 299 307 310 315 316
136 142 150 149 152 150 142 151 146 130 119 117 116 90 73 55 38 11 324 306 235 244 289 276 270 230 298 304 298 295 291 280 278 290 296 302 308 311
138 147 144 145 146 139 157 157 133 125 126 118 113 98 88 70 20 333 306 323 301 297 303 281 215 276 286 278 289 305 314 284 288 294 308 303 305 304
141 140 137 131 126 132 109 109 114 119 122 116 108 87 69 43 299 228 319 320 343 319 314 306 289 268 286 270 278 292 290 297 303 304 301 299 298 296
137 124 121 116 116 114 111 112 106 97 103 98 95 120 153 129 302 313 216 28 57 285 320 323 291 257 260 260 277 267 292 284 291 301 307 302 300 295
127 131 136 140 139 141 135 124 117 118 108 115 119 123 116 242 239 316 65 83 270 309 304 298 305 325 310 275 260 295 297 297 302 301 299 299 303 302
135 137 142 144 140 136 134 130 119 117 113 107 109 117 97 11 22 346 334 327 315 281 286 273 285 330 324 316 284 303 310 301 299 298 298 288 291 298
129 142 141 139 137 132 130 125 120 120 116 117 113 110 90 90 8 340 334 285 278 278 300 279 273 231 277 309 311 305 298 291 299 298 302 295 286 291
133 130 133 134 131 129 130 133 135 137 134 129 123 127 137 141 2 263 264 323 330 277 295 301 295 310 314 323 316 300 299 301 301 306 305 297 301 302
130 128 127 125 128 133 135 136 126 125 132 133 159 179 235 203 272 275 269 275 280 246 281 289 296 302 352 249 293 295 301 308 312 306 303 295 298 294
123 123 124 124 129 131 131 131 131 137 140 155 165 230 227 273 258 265 273 271 274 291 283 301 298 291 264 255 293 301 303 307 314 320 313 313 308 305